Weather History for Metropolis, IL

Change the Weather History Date:

Tuesday, March 11, 2014

  Actual Average (KPAH) Record (KPAH)
Temperature  
Mean Temperature 55 °F 47 °F  
Max Temperature 74 °F 57 °F 79 °F (2006)
Min Temperature 37 °F 36 °F 16 °F (1998)
Degree Days  
Heating Degree Days 10 18  
Month to date heating degree days 219  
Since 1 July heating degree days 3515  
Cooling Degree Days 0 0  
Month to date cooling degree days 0  
Year to date cooling degree days 0  
Growing Degree Days 5 (Base 50)    
Moisture  
Dew Point 46 °F    
Average Humidity 65    
Maximum Humidity 100    
Minimum Humidity 37    
Precipitation  
Precipitation 0.00 in 0.12 in 1.68 in (1943)
Month to date precipitation 1.30  
Year to date precipitation 8.89  
Snow  
Snow 0.00 in 0.10 in 2.00 in (1960)
Month to date snowfall 0.4  
Since 1 July snowfall 8.9  
Snow Depth -    
Sea Level Pressure  
Sea Level Pressure 29.68 in    
Wind  
Wind Speed 5 mph (SSW)    
Max Wind Speed 16 mph    
Max Gust Speed 22 mph    
Visibility 9 miles    
Events      
T = Trace of Precipitation, MM = Missing Value Source: NWS Daily Summary

Daily Weather History Graph

Daily Weather History Graph

Search for Another Location

Airport:

Trip Planner

Search our weather history database for the weather conditions in past years. The results will help you decide how hot, cold, wet, or windy it might be!

Date:

Astronomy

Mar. 11, 2014 Rise Set
Actual Time 7:11 AM CDT 6:58 PM CDT
Civil Twilight 6:45 AM CDT 7:24 PM CDT
Nautical Twilight 6:15 AM CDT 7:54 PM CDT
Astronomical Twilight 5:45 AM CDT 8:25 PM CDT
Moon 2:39 PM CDT (3/11) 4:00 AM CDT (3/11)
Length of Visible Light 12h 38m
Length of Day
11h 46m
Waxing Gibbous, 78% of the Moon is Illuminated
Mar 11
Waxing Gibbous
Mar 16
Full
Mar 23
Last Quarter
Mar 30
New
Apr 7
First Quarter

Hourly Weather History & Observations

Time (CDT) Temp. Dew Point Humidity Pressure Visibility Wind Dir Wind Speed Gust Speed Precip Events Conditions
12:15 AM 53.6 °F 42.4 °F 66% 29.81 in 10.0 mi SSW 6.9 mph - N/A   Clear
12:35 AM 53.1 °F 42.4 °F 67% 29.81 in 10.0 mi SSW 4.6 mph - N/A   Clear
12:55 AM 53.4 °F 42.4 °F 66% 29.80 in 10.0 mi SSW 3.5 mph - N/A   Clear
1:15 AM 52.7 °F 42.3 °F 68% 29.80 in 10.0 mi SSW 4.6 mph - N/A   Clear
1:35 AM 51.8 °F 41.9 °F 69% 29.80 in 10.0 mi SSW 5.8 mph - N/A   Clear
1:55 AM 50.9 °F 42.1 °F 72% 29.79 in 10.0 mi SSW 5.8 mph - N/A   Clear
2:15 AM 51.4 °F 42.3 °F 71% 29.79 in 10.0 mi SSW 6.9 mph - N/A   Clear
2:35 AM 51.6 °F 42.3 °F 70% 29.79 in 10.0 mi SSW 5.8 mph - N/A   Clear
2:55 AM 50.0 °F 41.5 °F 73% 29.78 in 10.0 mi SSW 5.8 mph - N/A   Clear
3:15 AM 49.6 °F 41.7 °F 74% 29.78 in 10.0 mi SW 4.6 mph - N/A   Clear
3:35 AM 49.6 °F 41.7 °F 74% 29.77 in 10.0 mi SSW 4.6 mph - N/A   Clear
3:55 AM 48.2 °F 41.4 °F 77% 29.77 in 10.0 mi SSW 3.5 mph - N/A   Clear
4:15 AM 47.5 °F 41.0 °F 78% 29.76 in 7.0 mi SSW 3.5 mph - N/A   Clear
4:35 AM 45.7 °F 41.7 °F 86% 29.76 in 7.0 mi Calm Calm - N/A   Clear
4:55 AM 42.1 °F 41.0 °F 96% 29.76 in 5.0 mi Calm Calm - N/A   Clear
5:15 AM 41.0 °F 40.1 °F 97% 29.76 in 3.0 mi Calm Calm - N/A   Clear
5:35 AM 40.5 °F 40.1 °F 99% 29.76 in 1.8 mi Calm Calm - N/A   Mist
5:55 AM 39.4 °F 39.4 °F 100% 29.76 in 1.5 mi Calm Calm - N/A   Mist
6:15 AM 39.2 °F 39.2 °F 100% 29.76 in 1.5 mi Calm Calm - N/A   Mist
6:35 AM 39.2 °F 39.2 °F 100% 29.76 in 2.5 mi Calm Calm - N/A   Clear
6:55 AM 37.9 °F 37.9 °F 100% 29.76 in 1.5 mi Calm Calm - N/A   Mist
7:15 AM 37.4 °F 37.4 °F 100% 29.76 in 1.2 mi Calm Calm - N/A   Mist
7:35 AM 37.6 °F 37.6 °F 100% 29.76 in 1.8 mi Calm Calm - N/A   Mist
7:55 AM 37.9 °F 37.9 °F 100% 29.76 in 2.5 mi Calm Calm - N/A   Clear
8:15 AM 41.7 °F 41.7 °F 100% 29.76 in 2.0 mi Calm Calm - N/A   Clear
8:35 AM 47.7 °F 47.7 °F 100% 29.76 in 5.0 mi Calm Calm - N/A   Clear
8:55 AM 51.4 °F 45.7 °F 81% 29.76 in 7.0 mi South 3.5 mph - N/A   Clear
9:15 AM 53.6 °F 45.0 °F 73% 29.76 in 10.0 mi SSW 4.6 mph - N/A   Clear
9:35 AM 55.9 °F 44.1 °F 64% 29.76 in 10.0 mi SSW 5.8 mph - N/A   Clear
9:55 AM 57.7 °F 44.4 °F 61% 29.75 in 10.0 mi SSW 8.1 mph - N/A   Clear
10:15 AM 59.0 °F 44.2 °F 58% 29.75 in 10.0 mi South 5.8 mph - N/A   Clear
10:35 AM 60.3 °F 44.6 °F 56% 29.74 in 10.0 mi SSW 4.6 mph - N/A   Clear
10:55 AM 61.9 °F 44.8 °F 53% 29.73 in 10.0 mi South 3.5 mph - N/A   Clear
11:15 AM 63.5 °F 45.0 °F 51% 29.73 in 10.0 mi SW 4.6 mph - N/A   Clear
11:35 AM 64.6 °F 44.8 °F 49% 29.73 in 10.0 mi SSW 5.8 mph - N/A   Clear
11:55 AM 65.8 °F 44.8 °F 47% 29.72 in 10.0 mi SSE 3.5 mph - N/A   Clear
12:15 PM 67.5 °F 44.8 °F 44% 29.72 in 10.0 mi South 5.8 mph - N/A   Clear
12:35 PM 69.1 °F 45.1 °F 42% 29.70 in 10.0 mi South 8.1 mph - N/A   Clear
12:55 PM 70.0 °F 45.0 °F 41% 29.70 in 10.0 mi SSW 5.8 mph - N/A   Clear
1:15 PM 70.7 °F 44.8 °F 39% 29.70 in 10.0 mi SSW 6.9 mph - N/A   Clear
1:35 PM 71.8 °F 45.0 °F 38% 29.68 in 10.0 mi South 13.8 mph 17.3 mph N/A   Scattered Clouds
1:55 PM 71.6 °F 43.9 °F 37% 29.67 in 10.0 mi South 12.7 mph 19.6 mph N/A   Mostly Cloudy
2:15 PM 72.0 °F 45.9 °F 39% 29.65 in 10.0 mi SSW 10.4 mph 18.4 mph N/A   Scattered Clouds
2:35 PM 72.7 °F 47.5 °F 41% 29.63 in 10.0 mi SSW 11.5 mph 18.4 mph N/A   Clear
2:55 PM 73.6 °F 48.2 °F 41% 29.62 in 10.0 mi SSW 12.7 mph - N/A   Clear
3:15 PM 72.9 °F 49.1 °F 43% 29.62 in 10.0 mi SSW 13.8 mph 19.6 mph N/A   Scattered Clouds
3:35 PM 73.0 °F 49.1 °F 43% 29.62 in 10.0 mi SSW 16.1 mph 21.9 mph N/A   Scattered Clouds
3:55 PM 73.4 °F 49.6 °F 43% 29.61 in 10.0 mi SW 13.8 mph - N/A   Clear
4:15 PM 73.6 °F 50.4 °F 44% 29.61 in 10.0 mi SSW 11.5 mph - N/A   Scattered Clouds
4:35 PM 73.9 °F 51.3 °F 45% 29.60 in 10.0 mi SSW 8.1 mph - N/A   Scattered Clouds
4:55 PM 72.9 °F 51.4 °F 47% 29.60 in 10.0 mi SSW 10.4 mph - N/A   Mostly Cloudy
5:15 PM 73.4 °F 51.6 °F 46% 29.59 in 10.0 mi SW 12.7 mph 16.1 mph N/A   Mostly Cloudy
5:35 PM 72.0 °F 51.4 °F 48% 29.59 in 10.0 mi South 8.1 mph - N/A   Mostly Cloudy
5:55 PM 71.6 °F 51.4 °F 49% 29.59 in 10.0 mi South 8.1 mph - N/A   Overcast
6:15 PM 71.2 °F 52.2 °F 51% 29.59 in 10.0 mi South 9.2 mph - N/A   Overcast
6:35 PM 70.9 °F 52.3 °F 52% 29.59 in 10.0 mi South 8.1 mph - N/A   Overcast
6:55 PM 70.3 °F 52.0 °F 52% 29.58 in 10.0 mi South 6.9 mph - N/A   Overcast
7:15 PM 69.1 °F 51.8 °F 54% 29.58 in 10.0 mi South 5.8 mph - N/A   Scattered Clouds
7:35 PM 68.0 °F 51.8 °F 56% 29.58 in 10.0 mi South 5.8 mph - N/A   Clear
7:55 PM 66.9 °F 51.8 °F 58% 29.58 in 10.0 mi South 3.5 mph - N/A   Clear
8:15 PM 65.5 °F 51.6 °F 61% 29.57 in 10.0 mi South 3.5 mph - N/A   Clear
8:35 PM 65.1 °F 51.8 °F 62% 29.57 in 10.0 mi South 3.5 mph - N/A   Clear
8:55 PM 66.4 °F 51.8 °F 59% 29.56 in 10.0 mi South 4.6 mph - N/A   Clear
9:15 PM 64.8 °F 51.8 °F 63% 29.56 in 10.0 mi SSW 5.8 mph - N/A   Clear
9:35 PM 64.6 °F 51.8 °F 63% 29.56 in 10.0 mi SSW 4.6 mph - N/A   Clear
9:55 PM 63.9 °F 51.8 °F 65% 29.55 in 10.0 mi South 4.6 mph - N/A   Clear
10:15 PM 64.0 °F 52.2 °F 65% 29.55 in 10.0 mi South 4.6 mph - N/A   Scattered Clouds
10:35 PM 64.4 °F 52.5 °F 65% 29.53 in 10.0 mi South 5.8 mph - N/A   Scattered Clouds
10:55 PM 63.7 °F 52.3 °F 67% 29.53 in 10.0 mi SSW 5.8 mph - N/A   Scattered Clouds
11:15 PM 64.0 °F 52.2 °F 65% 29.52 in 10.0 mi SW 10.4 mph - N/A   Clear
11:35 PM 64.0 °F 52.3 °F 66% 29.51 in 10.0 mi SSW 6.9 mph - N/A   Clear
11:55 PM 63.7 °F 52.3 °F 67% 29.51 in 10.0 mi SW 8.1 mph - N/A   Scattered Clouds